Location: Grandview
(34.8900°N, 117.1058°W)
Time: 19:12:07
(UTC-07:00)

Tiangong 2 - Pass Details

Date: 16 October 2017
Orbit: 388 x 391 km, 42.8° (Epoch: 23 October)

Event Time Altitude Azimuth Distance (km) Brightness Sun altitude
Exits shadow 04:45:25 13° 40° (NE) 1,258 4.2 -27.4°
Drops below altitude 10° 04:46:00 10° 48° (NE) 1,418 4.6 -27.2°
Sets 04:48:29 0° 67° (ENE) 2,274 6.2 -26.7°
